Time,TemperatureF,DewpointF,PressureIn,WindDirection,WindDirectionDegrees,WindSpeedMPH,WindSpeedGustMPH,Humidity,HourlyPrecipIn,Conditions,Clouds,dailyrainin,SoftwareType,DateUTC
2013-01-05 00:02:00,-12.5,-16.4,31.25,SSE,159,0.0,0.0,82,0.00,,,0.00,meteohub,2013-01-05 07:02:00,
2013-01-05 00:07:00,-12.8,-17.0,31.26,SSE,159,0.0,0.0,81,0.00,,,0.00,meteohub,2013-01-05 07:07:00,
2013-01-05 00:17:00,-13.7,-18.0,31.26,SSE,159,0.0,1.0,80,0.00,,,0.00,meteohub,2013-01-05 07:17:00,
2013-01-05 00:22:00,-13.7,-17.9,31.26,SSE,159,0.0,1.0,81,0.00,,,0.00,meteohub,2013-01-05 07:22:00,
2013-01-05 00:32:00,-13.7,-18.0,31.26,SSE,150,0.0,4.0,80,0.00,,,0.00,meteohub,2013-01-05 07:32:00,
2013-01-05 00:37:00,-13.4,-17.0,31.26,SSE,152,0.0,4.0,83,0.00,,,0.00,meteohub,2013-01-05 07:37:00,
2013-01-05 00:42:00,-12.5,-15.9,31.26,SSE,152,0.0,4.0,84,0.00,,,0.00,meteohub,2013-01-05 07:42:00,
2013-01-05 00:47:00,-11.9,-15.3,31.26,SSE,152,0.0,4.0,84,0.00,,,0.00,meteohub,2013-01-05 07:47:00,
2013-01-05 00:52:00,-11.6,-15.0,31.26,SSE,152,0.0,3.0,84,0.00,,,0.00,meteohub,2013-01-05 07:52:00,
2013-01-05 00:57:00,-11.6,-15.5,31.27,SSE,152,0.0,2.0,82,0.00,,,0.00,meteohub,2013-01-05 07:57:00,
2013-01-05 01:02:00,-12.5,-17.1,31.27,SSE,152,0.0,1.0,79,0.00,,,0.00,meteohub,2013-01-05 08:02:00,
2013-01-05 01:12:00,-13.4,-17.7,31.28,SSE,152,0.0,1.0,80,0.00,,,0.00,meteohub,2013-01-05 08:12:00,
2013-01-05 01:17:00,-13.2,-17.3,31.28,SSE,152,0.0,1.0,81,0.00,,,0.00,meteohub,2013-01-05 08:17:00,
2013-01-05 01:27:00,-13.4,-17.3,31.28,SSE,152,1.0,2.0,82,0.00,,,0.00,meteohub,2013-01-05 08:27:00,
2013-01-05 01:32:00,-14.1,-18.8,31.29,SSE,152,0.0,2.0,79,0.00,,,0.00,meteohub,2013-01-05 08:32:00,
2013-01-05 01:37:00,-14.8,-19.7,31.29,SSE,152,0.0,2.0,78,0.00,,,0.00,meteohub,2013-01-05 08:37:00,
2013-01-05 01:42:00,-15.0,-19.3,31.29,SSE,152,0.0,2.0,80,0.00,,,0.00,meteohub,2013-01-05 08:42:00,
2013-01-05 01:47:00,-15.0,-19.3,31.29,SSE,152,0.0,1.0,80,0.00,,,0.00,meteohub,2013-01-05 08:47:00,
2013-01-05 01:52:00,-15.0,-19.3,31.29,SSE,152,0.0,1.0,80,0.00,,,0.00,meteohub,2013-01-05 08:52:00,
2013-01-05 02:02:00,-15.2,-19.8,31.29,SSE,152,0.0,1.0,79,0.00,,,0.00,meteohub,2013-01-05 09:02:00,
2013-01-05 02:07:00,-15.3,-19.8,31.29,SSE,152,0.0,1.0,79,0.00,,,0.00,meteohub,2013-01-05 09:07:00,
2013-01-05 02:12:00,-15.3,-19.7,31.30,SSE,152,0.0,1.0,80,0.00,,,0.00,meteohub,2013-01-05 09:12:00,
2013-01-05 02:17:00,-15.3,-19.5,31.30,SSE,152,0.0,1.0,81,0.00,,,0.00,meteohub,2013-01-05 09:17:00,
2013-01-05 02:22:00,-15.0,-18.9,31.30,SSE,152,0.0,1.0,82,0.00,,,0.00,meteohub,2013-01-05 09:22:00,
2013-01-05 02:27:00,-14.3,-18.2,31.30,SSE,152,0.0,1.0,82,0.00,,,0.00,meteohub,2013-01-05 09:27:00,
2013-01-05 02:32:00,-14.4,-18.6,31.30,SSE,152,0.0,1.0,81,0.00,,,0.00,meteohub,2013-01-05 09:32:00,
2013-01-05 02:37:00,-14.6,-18.9,31.30,SSE,152,0.0,1.0,80,0.00,,,0.00,meteohub,2013-01-05 09:37:00,
2013-01-05 02:42:00,-14.3,-18.2,31.30,SSE,152,0.0,1.0,82,0.00,,,0.00,meteohub,2013-01-05 09:42:00,
2013-01-05 02:47:00,-14.3,-18.4,31.30,SSE,152,3.0,3.0,81,0.00,,,0.00,meteohub,2013-01-05 09:47:00,
2013-01-05 02:52:00,-15.5,-20.6,31.31,SSE,152,0.0,3.0,77,0.00,,,0.00,meteohub,2013-01-05 09:52:00,
2013-01-05 02:57:00,-15.9,-20.4,31.31,SSE,152,1.0,3.0,79,0.00,,,0.00,meteohub,2013-01-05 09:57:00,
2013-01-05 03:02:00,-15.5,-19.7,31.31,SSE,152,0.0,3.0,81,0.00,,,0.00,meteohub,2013-01-05 10:02:00,
2013-01-05 03:07:00,-14.6,-18.2,31.30,SSE,152,0.0,3.0,83,0.00,,,0.00,meteohub,2013-01-05 10:07:00,
2013-01-05 03:17:00,-15.3,-19.8,31.30,SSE,152,0.0,2.0,79,0.00,,,0.00,meteohub,2013-01-05 10:17:00,
2013-01-05 03:22:00,-15.7,-20.2,31.29,SSE,152,0.0,1.0,79,0.00,,,0.00,meteohub,2013-01-05 10:22:00,
2013-01-05 03:27:00,-15.5,-19.8,31.29,SSE,152,0.0,1.0,80,0.00,,,0.00,meteohub,2013-01-05 10:27:00,
2013-01-05 03:32:00,-15.5,-19.8,31.30,SSE,152,0.0,1.0,80,0.00,,,0.00,meteohub,2013-01-05 10:32:00,
2013-01-05 03:37:00,-15.9,-20.4,31.30,SSE,152,0.0,1.0,79,0.00,,,0.00,meteohub,2013-01-05 10:37:00,
2013-01-05 03:42:00,-16.1,-20.6,31.31,SSE,152,0.0,1.0,79,0.00,,,0.00,meteohub,2013-01-05 10:42:00,
2013-01-05 03:47:00,-15.5,-19.7,31.31,SSE,152,0.0,1.0,81,0.00,,,0.00,meteohub,2013-01-05 10:47:00,
2013-01-05 03:52:00,-15.2,-19.1,31.31,SSE,152,0.0,1.0,82,0.00,,,0.00,meteohub,2013-01-05 10:52:00,
2013-01-05 03:57:00,-14.4,-18.0,31.31,SSE,152,0.0,1.0,83,0.00,,,0.00,meteohub,2013-01-05 10:57:00,
2013-01-05 04:02:00,-14.1,-17.7,31.31,SSE,152,0.0,0.0,83,0.00,,,0.00,meteohub,2013-01-05 11:02:00,
2013-01-05 04:07:00,-15.0,-19.8,31.31,SSE,152,0.0,2.0,78,0.00,,,0.00,meteohub,2013-01-05 11:07:00,
2013-01-05 04:12:00,-15.5,-20.0,31.31,SSE,152,0.0,2.0,79,0.00,,,0.00,meteohub,2013-01-05 11:12:00,
2013-01-05 04:17:00,-15.9,-20.4,31.32,SSE,152,0.0,2.0,79,0.00,,,0.00,meteohub,2013-01-05 11:17:00,
2013-01-05 04:22:00,-15.9,-20.4,31.32,SSW,196,4.0,4.0,79,0.00,,,0.00,meteohub,2013-01-05 11:22:00,
2013-01-05 04:27:00,-16.8,-21.6,31.32,SSW,198,0.0,4.0,78,0.00,,,0.00,meteohub,2013-01-05 11:27:00,
2013-01-05 04:32:00,-17.1,-22.0,31.32,SSW,198,0.0,4.0,78,0.00,,,0.00,meteohub,2013-01-05 11:32:00,
2013-01-05 04:37:00,-17.1,-21.6,31.33,SSW,198,0.0,4.0,79,0.00,,,0.00,meteohub,2013-01-05 11:37:00,
2013-01-05 04:42:00,-17.1,-21.5,31.33,SSW,198,0.0,1.0,80,0.00,,,0.00,meteohub,2013-01-05 11:42:00,
2013-01-05 04:47:00,-16.4,-20.2,31.33,SSW,198,0.0,1.0,82,0.00,,,0.00,meteohub,2013-01-05 11:47:00,
2013-01-05 04:52:00,-17.3,-22.2,31.33,SSE,159,0.0,1.0,78,0.00,,,0.00,meteohub,2013-01-05 11:52:00,
2013-01-05 04:57:00,-18.0,-23.1,31.33,SSE,159,0.0,4.0,77,0.00,,,0.00,meteohub,2013-01-05 11:57:00,
2013-01-05 05:02:00,-17.9,-22.4,31.33,SSE,159,0.0,4.0,79,0.00,,,0.00,meteohub,2013-01-05 12:02:00,
2013-01-05 05:07:00,-17.3,-21.6,31.33,SSE,159,0.0,3.0,80,0.00,,,0.00,meteohub,2013-01-05 12:07:00,
2013-01-05 05:17:00,-17.5,-22.0,31.33,SSE,159,1.0,1.0,79,0.00,,,0.00,meteohub,2013-01-05 12:17:00,
2013-01-05 05:22:00,-18.2,-22.9,31.33,SSE,159,0.0,1.0,78,0.00,,,0.00,meteohub,2013-01-05 12:22:00,
2013-01-05 05:27:00,-18.6,-23.3,31.33,SSE,159,0.0,1.0,78,0.00,,,0.00,meteohub,2013-01-05 12:27:00,
2013-01-05 05:32:00,-18.6,-23.3,31.33,SSE,159,0.0,1.0,78,0.00,,,0.00,meteohub,2013-01-05 12:32:00,
2013-01-05 05:37:00,-18.6,-23.1,31.34,SSE,159,0.0,1.0,79,0.00,,,0.00,meteohub,2013-01-05 12:37:00,
2013-01-05 05:42:00,-18.6,-23.1,31.34,SSE,159,0.0,0.0,79,0.00,,,0.00,meteohub,2013-01-05 12:42:00,
2013-01-05 05:47:00,-18.8,-23.4,31.34,SSE,159,1.0,0.0,78,0.00,,,0.00,meteohub,2013-01-05 12:47:00,
2013-01-05 05:52:00,-18.9,-23.6,31.35,SSE,159,1.0,1.0,78,0.00,,,0.00,meteohub,2013-01-05 12:52:00,
2013-01-05 05:57:00,-18.9,-23.4,31.35,SE,132,2.0,2.0,79,0.00,,,0.00,meteohub,2013-01-05 12:57:00,
2013-01-05 06:07:00,-18.9,-23.4,31.35,SSE,165,0.0,4.0,79,0.00,,,0.00,meteohub,2013-01-05 13:07:00,
2013-01-05 06:12:00,-19.5,-24.2,31.36,SSE,165,0.0,4.0,78,0.00,,,0.00,meteohub,2013-01-05 13:12:00,
2013-01-05 06:17:00,-19.3,-23.8,31.36,SSE,165,0.0,3.0,79,0.00,,,0.00,meteohub,2013-01-05 13:17:00,
2013-01-05 06:27:00,-18.6,-22.9,31.36,SSE,165,0.0,1.0,80,0.00,,,0.00,meteohub,2013-01-05 13:27:00,
2013-01-05 06:32:00,-18.2,-22.5,31.36,SSE,165,0.0,1.0,80,0.00,,,0.00,meteohub,2013-01-05 13:32:00,
2013-01-05 06:37:00,-18.4,-22.9,31.37,SSE,165,0.0,1.0,79,0.00,,,0.00,meteohub,2013-01-05 13:37:00,
2013-01-05 06:42:00,-18.9,-23.6,31.37,SSE,165,0.0,1.0,78,0.00,,,0.00,meteohub,2013-01-05 13:42:00,
2013-01-05 06:47:00,-18.9,-23.6,31.37,SSE,165,0.0,1.0,78,0.00,,,0.00,meteohub,2013-01-05 13:47:00,
2013-01-05 06:52:00,-19.1,-23.8,31.37,SSE,165,0.0,1.0,78,0.00,,,0.00,meteohub,2013-01-05 13:52:00,
2013-01-05 06:57:00,-19.3,-24.0,31.38,SSE,165,0.0,0.0,78,0.00,,,0.00,meteohub,2013-01-05 13:57:00,
2013-01-05 07:02:00,-19.5,-24.2,31.38,SSE,165,0.0,0.0,78,0.00,,,0.00,meteohub,2013-01-05 14:02:00,
2013-01-05 07:07:00,-19.8,-24.5,31.38,SSE,165,0.0,2.0,78,0.00,,,0.00,meteohub,2013-01-05 14:07:00,
2013-01-05 07:12:00,-20.4,-25.2,31.38,SSE,165,0.0,2.0,77,0.00,,,0.00,meteohub,2013-01-05 14:12:00,
2013-01-05 07:17:00,-20.0,-24.7,31.39,SSE,165,0.0,2.0,78,0.00,,,0.00,meteohub,2013-01-05 14:17:00,
2013-01-05 07:22:00,-20.7,-25.6,31.40,South,171,0.0,2.0,77,0.00,,,0.00,meteohub,2013-01-05 14:22:00,
2013-01-05 07:32:00,-20.7,-25.4,31.40,South,171,0.0,2.0,78,0.00,,,0.00,meteohub,2013-01-05 14:32:00,
2013-01-05 07:37:00,-20.4,-24.9,31.40,South,171,0.0,1.0,79,0.00,,,0.00,meteohub,2013-01-05 14:37:00,
2013-01-05 07:42:00,-19.8,-24.2,31.40,South,171,0.0,0.0,80,0.00,,,0.00,meteohub,2013-01-05 14:42:00,
2013-01-05 07:52:00,-20.0,-24.7,31.41,South,171,0.0,1.0,78,0.00,,,0.00,meteohub,2013-01-05 14:52:00,
2013-01-05 07:57:00,-20.2,-25.2,31.40,South,171,0.0,1.0,77,0.00,,,0.00,meteohub,2013-01-05 14:57:00,
2013-01-05 08:07:00,-19.7,-24.0,31.40,South,171,0.0,0.0,80,0.00,,,0.00,meteohub,2013-01-05 15:07:00,
2013-01-05 08:12:00,-19.7,-24.2,31.40,South,171,0.0,0.0,79,0.00,,,0.00,meteohub,2013-01-05 15:12:00,
2013-01-05 08:17:00,-20.0,-25.1,31.40,South,171,0.0,1.0,77,0.00,,,0.00,meteohub,2013-01-05 15:17:00,
2013-01-05 08:22:00,-19.8,-24.5,31.40,South,171,0.0,1.0,78,0.00,,,0.00,meteohub,2013-01-05 15:22:00,
2013-01-05 08:27:00,-18.8,-22.7,31.41,South,171,0.0,1.0,81,0.00,,,0.00,meteohub,2013-01-05 15:27:00,
2013-01-05 08:32:00,-18.2,-22.5,31.41,South,171,0.0,1.0,80,0.00,,,0.00,meteohub,2013-01-05 15:32:00,
2013-01-05 08:37:00,-17.7,-22.0,31.41,South,171,0.0,1.0,80,0.00,,,0.00,meteohub,2013-01-05 15:37:00,
2013-01-05 08:42:00,-16.6,-20.4,31.41,South,171,0.0,1.0,82,0.00,,,0.00,meteohub,2013-01-05 15:42:00,
2013-01-05 08:47:00,-15.2,-18.8,31.41,South,171,0.0,1.0,83,0.00,,,0.00,meteohub,2013-01-05 15:47:00,
2013-01-05 08:52:00,-14.3,-18.2,31.41,South,171,0.0,1.0,82,0.00,,,0.00,meteohub,2013-01-05 15:52:00,
2013-01-05 09:02:00,-13.9,-18.6,31.41,SSE,163,1.0,4.0,79,0.00,,,0.00,meteohub,2013-01-05 16:02:00,
2013-01-05 09:12:00,-12.6,-16.6,31.41,SSE,163,0.0,4.0,82,0.00,,,0.00,meteohub,2013-01-05 16:12:00,
2013-01-05 09:17:00,-11.9,-15.9,31.41,SSE,163,1.0,3.0,82,0.00,,,0.00,meteohub,2013-01-05 16:17:00,
2013-01-05 09:22:00,-11.0,-15.2,31.42,SSE,163,0.0,3.0,81,0.00,,,0.00,meteohub,2013-01-05 16:22:00,
2013-01-05 09:32:00,-9.4,-13.4,31.42,SSE,163,1.0,3.0,82,0.00,,,0.00,meteohub,2013-01-05 16:32:00,
2013-01-05 09:37:00,-8.5,-12.5,31.42,SSE,163,0.0,2.0,82,0.00,,,0.00,meteohub,2013-01-05 16:37:00,
2013-01-05 09:42:00,-7.2,-11.0,31.42,SSE,163,0.0,2.0,83,0.00,,,0.00,meteohub,2013-01-05 16:42:00,
2013-01-05 09:47:00,-6.5,-10.5,31.42,SSE,163,0.0,2.0,82,0.00,,,0.00,meteohub,2013-01-05 16:47:00,
2013-01-05 09:52:00,-6.5,-11.0,31.43,SSE,163,1.0,1.0,80,0.00,,,0.00,meteohub,2013-01-05 16:52:00,
2013-01-05 09:57:00,-6.5,-11.0,31.43,SSE,163,1.0,2.0,80,0.00,,,0.00,meteohub,2013-01-05 16:57:00,
2013-01-05 10:02:00,-6.3,-10.7,31.43,SSE,163,0.0,2.0,81,0.00,,,0.00,meteohub,2013-01-05 17:02:00,
2013-01-05 10:07:00,-6.0,-10.3,31.43,SSE,163,0.0,2.0,81,0.00,,,0.00,meteohub,2013-01-05 17:07:00,
2013-01-05 10:12:00,-5.3,-9.4,31.43,SSE,163,0.0,2.0,82,0.00,,,0.00,meteohub,2013-01-05 17:12:00,
2013-01-05 10:17:00,-4.5,-8.7,31.43,SSE,164,1.0,2.0,82,0.00,,,0.00,meteohub,2013-01-05 17:17:00,
2013-01-05 10:22:00,-4.0,-8.1,31.43,SSE,164,0.0,2.0,82,0.00,,,0.00,meteohub,2013-01-05 17:22:00,
2013-01-05 10:32:00,-3.3,-7.6,31.42,SSE,164,1.0,2.0,81,0.00,,,0.00,meteohub,2013-01-05 17:32:00,
2013-01-05 10:37:00,-2.2,-6.3,31.41,SSE,164,2.0,2.0,82,0.00,,,0.00,meteohub,2013-01-05 17:37:00,
2013-01-05 10:47:00,-0.8,-5.3,31.40,SSE,164,1.0,3.0,81,0.00,,,0.00,meteohub,2013-01-05 17:47:00,
2013-01-05 10:52:00,-0.2,-4.7,31.40,SSE,164,0.0,3.0,81,0.00,,,0.00,meteohub,2013-01-05 17:52:00,
2013-01-05 10:57:00,0.0,-4.7,31.39,SSE,164,1.0,2.0,80,0.00,,,0.00,meteohub,2013-01-05 17:57:00,
2013-01-05 11:02:00,0.1,-4.5,31.39,SSE,164,0.0,2.0,80,0.00,,,0.00,meteohub,2013-01-05 18:02:00,
2013-01-05 11:07:00,1.2,-2.9,31.38,SSE,164,1.0,2.0,82,0.00,,,0.00,meteohub,2013-01-05 18:07:00,
2013-01-05 11:12:00,2.1,-2.9,31.37,SSE,164,1.0,2.0,79,0.00,,,0.00,meteohub,2013-01-05 18:12:00,
2013-01-05 11:22:00,2.7,-3.1,31.36,South,169,3.0,3.0,76,0.00,,,0.00,meteohub,2013-01-05 18:22:00,
2013-01-05 11:27:00,2.8,-3.3,31.35,WSW,252,1.0,3.0,75,0.00,,,0.00,meteohub,2013-01-05 18:27:00,
2013-01-05 11:37:00,4.5,-2.6,31.35,WNW,297,1.0,4.0,72,0.00,,,0.00,meteohub,2013-01-05 18:37:00,
2013-01-05 11:42:00,5.4,-2.0,31.34,WNW,297,2.0,4.0,71,0.00,,,0.00,meteohub,2013-01-05 18:42:00,
2013-01-05 11:47:00,6.1,-1.8,31.34,WNW,300,4.0,5.0,69,0.00,,,0.00,meteohub,2013-01-05 18:47:00,
2013-01-05 11:57:00,7.3,-1.3,31.34,NW,304,3.0,5.0,67,0.00,,,0.00,meteohub,2013-01-05 18:57:00,
2013-01-05 12:02:00,7.5,-1.5,31.34,NW,304,2.0,5.0,66,0.00,,,0.00,meteohub,2013-01-05 19:02:00,
2013-01-05 12:07:00,7.9,-1.5,31.33,NW,304,2.0,4.0,65,0.00,,,0.00,meteohub,2013-01-05 19:07:00,
2013-01-05 12:17:00,9.1,-0.2,31.32,WNW,303,2.0,3.0,65,0.00,,,0.00,meteohub,2013-01-05 19:17:00,
2013-01-05 12:22:00,10.0,0.0,31.32,WNW,303,1.0,3.0,63,0.00,,,0.00,meteohub,2013-01-05 19:22:00,
2013-01-05 12:27:00,10.8,0.0,31.32,WNW,303,2.0,4.0,61,0.00,,,0.00,meteohub,2013-01-05 19:27:00,
2013-01-05 12:32:00,11.5,1.0,31.32,WNW,303,3.0,4.0,62,0.00,,,0.00,meteohub,2013-01-05 19:32:00,
2013-01-05 12:37:00,11.7,1.2,31.31,WNW,303,2.0,4.0,62,0.00,,,0.00,meteohub,2013-01-05 19:37:00,
2013-01-05 12:42:00,12.4,1.6,31.31,WNW,303,1.0,4.0,61,0.00,,,0.00,meteohub,2013-01-05 19:42:00,
2013-01-05 12:47:00,13.3,1.6,31.31,WNW,303,1.0,4.0,59,0.00,,,0.00,meteohub,2013-01-05 19:47:00,
2013-01-05 12:52:00,14.5,2.8,31.30,WNW,303,2.0,3.0,59,0.00,,,0.00,meteohub,2013-01-05 19:52:00,
2013-01-05 12:57:00,15.3,2.3,31.30,WNW,303,2.0,3.0,56,0.00,,,0.00,meteohub,2013-01-05 19:57:00,
2013-01-05 13:02:00,15.4,2.5,31.29,WNW,303,3.0,3.0,56,0.00,,,0.00,meteohub,2013-01-05 20:02:00,
2013-01-05 13:07:00,15.6,2.3,31.29,WNW,303,3.0,4.0,55,0.00,,,0.00,meteohub,2013-01-05 20:07:00,
2013-01-05 13:12:00,16.0,2.3,31.29,WNW,303,3.0,4.0,54,0.00,,,0.00,meteohub,2013-01-05 20:12:00,
2013-01-05 13:17:00,16.3,2.1,31.29,WNW,303,4.0,4.0,53,0.00,,,0.00,meteohub,2013-01-05 20:17:00,
2013-01-05 13:27:00,16.2,3.2,31.28,WNW,291,5.0,6.0,56,0.00,,,0.00,meteohub,2013-01-05 20:27:00,
2013-01-05 13:32:00,16.0,3.0,31.28,WNW,285,3.0,6.0,56,0.00,,,0.00,meteohub,2013-01-05 20:32:00,
2013-01-05 13:42:00,16.5,3.2,31.28,NW,305,3.0,5.0,55,0.00,,,0.00,meteohub,2013-01-05 20:42:00,
2013-01-05 13:52:00,17.2,3.9,31.28,NW,304,4.0,5.0,55,0.00,,,0.00,meteohub,2013-01-05 20:52:00,
2013-01-05 13:57:00,17.2,3.9,31.28,NW,313,5.0,5.0,55,0.00,,,0.00,meteohub,2013-01-05 20:57:00,
2013-01-05 14:02:00,17.2,3.9,31.28,WNW,298,4.0,6.0,55,0.00,,,0.00,meteohub,2013-01-05 21:02:00,
2013-01-05 14:07:00,17.8,4.3,31.28,WNW,300,3.0,6.0,55,0.00,,,0.00,meteohub,2013-01-05 21:07:00,
2013-01-05 14:12:00,18.0,4.5,31.29,WNW,292,6.0,6.0,55,0.00,,,0.00,meteohub,2013-01-05 21:12:00,
2013-01-05 14:17:00,17.6,5.0,31.28,NW,308,3.0,6.0,57,0.00,,,0.00,meteohub,2013-01-05 21:17:00,
2013-01-05 14:22:00,18.0,4.5,31.29,NW,306,2.0,6.0,55,0.00,,,0.00,meteohub,2013-01-05 21:22:00,
2013-01-05 14:27:00,18.7,4.8,31.29,WNW,286,4.0,6.0,54,0.00,,,0.00,meteohub,2013-01-05 21:27:00,
2013-01-05 14:32:00,18.5,5.0,31.29,NW,304,3.0,5.0,55,0.00,,,0.00,meteohub,2013-01-05 21:32:00,
2013-01-05 14:37:00,18.1,4.6,31.29,WNW,302,4.0,5.0,55,0.00,,,0.00,meteohub,2013-01-05 21:37:00,
2013-01-05 14:47:00,18.3,4.5,31.29,NW,308,2.0,5.0,54,0.00,,,0.00,meteohub,2013-01-05 21:47:00,
2013-01-05 14:52:00,18.7,4.8,31.29,NW,308,2.0,5.0,54,0.00,,,0.00,meteohub,2013-01-05 21:52:00,
2013-01-05 14:57:00,18.9,4.6,31.29,NW,308,2.0,4.0,53,0.00,,,0.00,meteohub,2013-01-05 21:57:00,
2013-01-05 15:02:00,19.0,5.5,31.29,NW,308,2.0,4.0,55,0.00,,,0.00,meteohub,2013-01-05 22:02:00,
2013-01-05 15:07:00,18.9,5.4,31.29,NW,308,2.0,3.0,55,0.00,,,0.00,meteohub,2013-01-05 22:07:00,
2013-01-05 15:12:00,18.9,5.0,31.29,NW,308,1.0,3.0,54,0.00,,,0.00,meteohub,2013-01-05 22:12:00,
2013-01-05 15:17:00,19.0,4.6,31.29,NW,308,2.0,3.0,53,0.00,,,0.00,meteohub,2013-01-05 22:17:00,
2013-01-05 15:22:00,19.2,4.5,31.29,NW,308,2.0,3.0,52,0.00,,,0.00,meteohub,2013-01-05 22:22:00,
2013-01-05 15:27:00,19.0,4.3,31.29,NW,308,2.0,3.0,52,0.00,,,0.00,meteohub,2013-01-05 22:27:00,
2013-01-05 15:37:00,18.3,4.1,31.29,NW,308,2.0,3.0,53,0.00,,,0.00,meteohub,2013-01-05 22:37:00,
2013-01-05 15:42:00,18.5,4.3,31.29,NW,308,2.0,3.0,53,0.00,,,0.00,meteohub,2013-01-05 22:42:00,
2013-01-05 15:47:00,18.3,4.5,31.29,NW,308,4.0,4.0,54,0.00,,,0.00,meteohub,2013-01-05 22:47:00,
2013-01-05 15:57:00,17.8,3.9,31.29,NW,306,0.0,5.0,54,0.00,,,0.00,meteohub,2013-01-05 22:57:00,
2013-01-05 16:02:00,17.8,3.6,31.29,NW,306,0.0,5.0,53,0.00,,,0.00,meteohub,2013-01-05 23:02:00,
2013-01-05 16:07:00,17.4,3.2,31.29,NW,306,0.0,4.0,53,0.00,,,0.00,meteohub,2013-01-05 23:07:00,
2013-01-05 16:12:00,16.7,2.1,31.29,NW,306,1.0,2.0,52,0.00,,,0.00,meteohub,2013-01-05 23:12:00,
2013-01-05 16:17:00,16.0,2.3,31.29,NW,306,0.0,2.0,54,0.00,,,0.00,meteohub,2013-01-05 23:17:00,
2013-01-05 16:22:00,15.6,1.9,31.29,NW,306,0.0,2.0,54,0.00,,,0.00,meteohub,2013-01-05 23:22:00,
2013-01-05 16:27:00,15.6,2.3,31.29,NW,306,0.0,1.0,55,0.00,,,0.00,meteohub,2013-01-05 23:27:00,
2013-01-05 16:32:00,14.5,0.1,31.30,NW,305,2.0,2.0,52,0.00,,,0.00,meteohub,2013-01-05 23:32:00,
2013-01-05 16:37:00,12.4,0.0,31.30,NW,304,1.0,3.0,57,0.00,,,0.00,meteohub,2013-01-05 23:37:00,
2013-01-05 16:42:00,10.9,-0.6,31.30,NW,304,0.0,3.0,59,0.00,,,0.00,meteohub,2013-01-05 23:42:00,
2013-01-05 16:47:00,9.1,-1.8,31.30,South,187,1.0,3.0,60,0.00,,,0.00,meteohub,2013-01-05 23:47:00,
2013-01-05 16:52:00,7.9,-1.8,31.30,South,179,0.0,4.0,64,0.00,,,0.00,meteohub,2013-01-05 23:52:00,
2013-01-05 16:57:00,7.3,-0.9,31.30,South,179,1.0,4.0,68,0.00,,,0.00,meteohub,2013-01-05 23:57:00,
2013-01-05 17:02:00,7.0,-0.8,31.30,South,179,0.0,4.0,70,0.00,,,0.00,meteohub,2013-01-06 00:02:00,
2013-01-05 17:07:00,7.0,-0.8,31.31,South,179,1.0,2.0,70,0.00,,,0.00,meteohub,2013-01-06 00:07:00,
2013-01-05 17:17:00,5.9,-2.7,31.31,South,179,2.0,2.0,67,0.00,,,0.00,meteohub,2013-01-06 00:17:00,
2013-01-05 17:22:00,4.8,-4.0,31.31,South,176,2.0,2.0,66,0.00,,,0.00,meteohub,2013-01-06 00:22:00,
2013-01-05 17:27:00,3.0,-5.1,31.32,South,176,1.0,2.0,68,0.00,,,0.00,meteohub,2013-01-06 00:27:00,
2013-01-05 17:32:00,2.5,-4.2,31.32,South,176,0.0,2.0,73,0.00,,,0.00,meteohub,2013-01-06 00:32:00,
2013-01-05 17:37:00,2.1,-4.2,31.32,South,176,0.0,2.0,74,0.00,,,0.00,meteohub,2013-01-06 00:37:00,
2013-01-05 17:47:00,1.9,-3.8,31.33,South,176,0.0,2.0,76,0.00,,,0.00,meteohub,2013-01-06 00:47:00,
2013-01-05 17:52:00,1.9,-3.8,31.34,South,176,0.0,2.0,76,0.00,,,0.00,meteohub,2013-01-06 00:52:00,
2013-01-05 18:02:00,0.5,-6.7,31.34,South,175,1.0,4.0,71,0.00,,,0.00,meteohub,2013-01-06 01:02:00,
2013-01-05 18:07:00,0.0,-5.4,31.34,South,175,1.0,4.0,77,0.00,,,0.00,meteohub,2013-01-06 01:07:00,
2013-01-05 18:12:00,-0.2,-6.0,31.35,South,175,0.0,4.0,76,0.00,,,0.00,meteohub,2013-01-06 01:12:00,
2013-01-05 18:17:00,-0.6,-6.0,31.35,South,175,0.0,3.0,77,0.00,,,0.00,meteohub,2013-01-06 01:17:00,
2013-01-05 18:22:00,-1.1,-6.5,31.35,South,175,0.0,2.0,77,0.00,,,0.00,meteohub,2013-01-06 01:22:00,
2013-01-05 18:27:00,-1.5,-7.2,31.35,South,175,0.0,2.0,76,0.00,,,0.00,meteohub,2013-01-06 01:27:00,
2013-01-05 18:32:00,-1.1,-5.8,31.36,South,175,0.0,2.0,80,0.00,,,0.00,meteohub,2013-01-06 01:32:00,
2013-01-05 18:37:00,-1.1,-6.5,31.36,South,175,0.0,2.0,77,0.00,,,0.00,meteohub,2013-01-06 01:37:00,
2013-01-05 18:42:00,-1.5,-6.7,31.36,South,175,0.0,2.0,78,0.00,,,0.00,meteohub,2013-01-06 01:42:00,
2013-01-05 18:52:00,-1.8,-7.1,31.36,South,175,0.0,1.0,78,0.00,,,0.00,meteohub,2013-01-06 01:52:00,
2013-01-05 18:57:00,-2.0,-6.9,31.36,South,175,0.0,2.0,79,0.00,,,0.00,meteohub,2013-01-06 01:57:00,
2013-01-05 19:02:00,-2.0,-6.9,31.36,South,175,0.0,2.0,79,0.00,,,0.00,meteohub,2013-01-06 02:02:00,
2013-01-05 19:07:00,-2.6,-8.0,31.37,South,175,1.0,2.0,77,0.00,,,0.00,meteohub,2013-01-06 02:07:00,
2013-01-05 19:17:00,-2.9,-7.6,31.37,South,175,0.0,2.0,80,0.00,,,0.00,meteohub,2013-01-06 02:17:00,
2013-01-05 19:22:00,-3.3,-8.1,31.37,South,175,0.0,2.0,79,0.00,,,0.00,meteohub,2013-01-06 02:22:00,
2013-01-05 19:32:00,-4.0,-8.9,31.38,South,175,0.0,1.0,79,0.00,,,0.00,meteohub,2013-01-06 02:32:00,
2013-01-05 19:37:00,-4.2,-8.5,31.38,South,175,0.0,1.0,81,0.00,,,0.00,meteohub,2013-01-06 02:37:00,
2013-01-05 19:47:00,-3.6,-7.2,31.38,South,175,1.0,1.0,84,0.00,,,0.00,meteohub,2013-01-06 02:47:00,
2013-01-05 19:52:00,-4.0,-8.1,31.38,South,175,0.0,1.0,82,0.00,,,0.00,meteohub,2013-01-06 02:52:00,
2013-01-05 19:57:00,-4.9,-9.9,31.39,South,175,0.0,3.0,78,0.00,,,0.00,meteohub,2013-01-06 02:57:00,
2013-01-05 20:07:00,-5.6,-9.9,31.39,South,175,0.0,3.0,81,0.00,,,0.00,meteohub,2013-01-06 03:07:00,
2013-01-05 20:12:00,-6.0,-10.3,31.39,South,175,0.0,2.0,81,0.00,,,0.00,meteohub,2013-01-06 03:12:00,
2013-01-05 20:17:00,-6.9,-11.9,31.39,South,175,0.0,2.0,78,0.00,,,0.00,meteohub,2013-01-06 03:17:00,
2013-01-05 20:22:00,-7.6,-12.1,31.40,South,175,0.0,2.0,80,0.00,,,0.00,meteohub,2013-01-06 03:22:00,
2013-01-05 20:27:00,-7.4,-11.2,31.40,South,175,0.0,2.0,83,0.00,,,0.00,meteohub,2013-01-06 03:27:00,
2013-01-05 20:32:00,-7.4,-11.0,31.40,South,175,0.0,1.0,84,0.00,,,0.00,meteohub,2013-01-06 03:32:00,
2013-01-05 20:37:00,-7.8,-11.7,31.40,South,175,0.0,1.0,82,0.00,,,0.00,meteohub,2013-01-06 03:37:00,
2013-01-05 20:47:00,-8.1,-11.9,31.40,South,175,0.0,1.0,83,0.00,,,0.00,meteohub,2013-01-06 03:47:00,
2013-01-05 20:52:00,-7.8,-11.0,31.40,South,175,1.0,1.0,85,0.00,,,0.00,meteohub,2013-01-06 03:52:00,
2013-01-05 20:57:00,-7.8,-11.6,31.40,South,175,0.0,2.0,83,0.00,,,0.00,meteohub,2013-01-06 03:57:00,
2013-01-05 21:02:00,-7.8,-11.6,31.40,South,175,0.0,2.0,83,0.00,,,0.00,meteohub,2013-01-06 04:02:00,
2013-01-05 21:07:00,-7.8,-11.6,31.40,South,175,0.0,2.0,83,0.00,,,0.00,meteohub,2013-01-06 04:07:00,
2013-01-05 21:12:00,-7.6,-10.8,31.40,South,175,0.0,1.0,85,0.00,,,0.00,meteohub,2013-01-06 04:12:00,
2013-01-05 21:17:00,-7.2,-10.5,31.40,South,175,0.0,1.0,85,0.00,,,0.00,meteohub,2013-01-06 04:17:00,
2013-01-05 21:22:00,-7.1,-10.3,31.41,South,175,0.0,1.0,85,0.00,,,0.00,meteohub,2013-01-06 04:22:00,
2013-01-05 21:27:00,-7.2,-11.2,31.41,South,175,0.0,1.0,82,0.00,,,0.00,meteohub,2013-01-06 04:27:00,
2013-01-05 21:32:00,-7.8,-12.1,31.41,South,175,0.0,1.0,81,0.00,,,0.00,meteohub,2013-01-06 04:32:00,
2013-01-05 21:37:00,-8.3,-12.8,31.41,South,175,0.0,1.0,80,0.00,,,0.00,meteohub,2013-01-06 04:37:00,
2013-01-05 21:42:00,-8.3,-12.1,31.41,South,175,0.0,0.0,83,0.00,,,0.00,meteohub,2013-01-06 04:42:00,
2013-01-05 21:47:00,-8.1,-11.9,31.42,South,175,0.0,0.0,83,0.00,,,0.00,meteohub,2013-01-06 04:47:00,
2013-01-05 21:52:00,-8.3,-12.3,31.42,South,175,0.0,0.0,82,0.00,,,0.00,meteohub,2013-01-06 04:52:00,
2013-01-05 22:02:00,-8.5,-12.3,31.42,South,175,0.0,0.0,83,0.00,,,0.00,meteohub,2013-01-06 05:02:00,
2013-01-05 22:07:00,-8.5,-12.3,31.42,South,175,1.0,0.0,83,0.00,,,0.00,meteohub,2013-01-06 05:07:00,
2013-01-05 22:12:00,-9.4,-13.9,31.42,South,175,1.0,2.0,80,0.00,,,0.00,meteohub,2013-01-06 05:12:00,
2013-01-05 22:17:00,-9.9,-14.4,31.42,South,175,1.0,2.0,80,0.00,,,0.00,meteohub,2013-01-06 05:17:00,
2013-01-05 22:22:00,-9.9,-13.7,31.42,South,175,0.0,3.0,83,0.00,,,0.00,meteohub,2013-01-06 05:22:00,
2013-01-05 22:27:00,-9.8,-13.2,31.42,South,175,0.0,3.0,84,0.00,,,0.00,meteohub,2013-01-06 05:27:00,
2013-01-05 22:32:00,-9.8,-13.7,31.42,South,175,1.0,2.0,82,0.00,,,0.00,meteohub,2013-01-06 05:32:00,
2013-01-05 22:37:00,-9.8,-13.5,31.42,South,175,0.0,1.0,83,0.00,,,0.00,meteohub,2013-01-06 05:37:00,
2013-01-05 22:42:00,-10.7,-15.3,31.42,South,175,0.0,2.0,79,0.00,,,0.00,meteohub,2013-01-06 05:42:00,
2013-01-05 22:47:00,-10.8,-14.8,31.42,South,175,0.0,2.0,82,0.00,,,0.00,meteohub,2013-01-06 05:47:00,
2013-01-05 22:52:00,-10.7,-14.1,31.42,South,175,0.0,2.0,84,0.00,,,0.00,meteohub,2013-01-06 05:52:00,
2013-01-05 22:57:00,-10.7,-14.4,31.42,South,175,0.0,1.0,83,0.00,,,0.00,meteohub,2013-01-06 05:57:00,
2013-01-05 23:02:00,-10.7,-14.6,31.42,South,175,0.0,1.0,82,0.00,,,0.00,meteohub,2013-01-06 06:02:00,
2013-01-05 23:07:00,-10.7,-14.6,31.42,South,175,0.0,1.0,82,0.00,,,0.00,meteohub,2013-01-06 06:07:00,
2013-01-05 23:12:00,-10.7,-14.6,31.42,South,175,0.0,0.0,82,0.00,,,0.00,meteohub,2013-01-06 06:12:00,
2013-01-05 23:17:00,-10.8,-15.0,31.42,South,175,0.0,1.0,81,0.00,,,0.00,meteohub,2013-01-06 06:17:00,
2013-01-05 23:27:00,-11.2,-15.3,31.42,South,175,0.0,1.0,81,0.00,,,0.00,meteohub,2013-01-06 06:27:00,
2013-01-05 23:32:00,-11.2,-15.2,31.42,South,175,0.0,0.0,82,0.00,,,0.00,meteohub,2013-01-06 06:32:00,
2013-01-05 23:37:00,-11.6,-16.1,31.42,South,175,0.0,0.0,80,0.00,,,0.00,meteohub,2013-01-06 06:37:00,
2013-01-05 23:42:00,-11.9,-16.1,31.42,South,175,0.0,2.0,81,0.00,,,0.00,meteohub,2013-01-06 06:42:00,
2013-01-05 23:47:00,-11.9,-16.1,31.42,South,175,0.0,2.0,81,0.00,,,0.00,meteohub,2013-01-06 06:47:00,
2013-01-05 23:52:00,-12.1,-16.1,31.42,South,175,0.0,2.0,82,0.00,,,0.00,meteohub,2013-01-06 06:52:00,
2013-01-05 23:57:00,-12.1,-16.1,31.42,South,175,0.0,0.0,82,0.00,,,0.00,meteohub,2013-01-06 06:57:00,